Marysville, OH

5:45 AM EDT on April 27, 2017 (GMT -0400)
Marysville

Weather History for KMRT - November, 2012

Change the Weather History Date:

Monday, November 5, 2012

  Actual Average (KDLZ) Record (KDLZ)
Temperature  
Mean Temperature 34 °F -  
Max Temperature 44 °F 52 °F 77 °F (2015)
Min Temperature 24 °F 35 °F 12 °F (1991)
Degree Days  
Heating Degree Days 31    
Moisture  
Dew Point 26 °F    
Average Humidity 76    
Maximum Humidity 95    
Minimum Humidity 46    
Precipitation  
Precipitation 0.00 in - - ()
Sea Level Pressure  
Sea Level Pressure 30.15 in    
Wind  
Wind Speed 2 mph (ENE)    
Max Wind Speed 8 mph    
Max Gust Speed -    
Visibility 8 miles    
Events      
Averages and records for this station are not official NWS values.
T = Trace of Precipitation, MM = Missing Value Source: NWS Daily Summary

Daily Weather History Graph

Daily Weather History Graph

Search for Another Location

Airport or City:

Trip Planner

Search our weather history database for the weather conditions in past years. The results will help you decide how hot, cold, wet, or windy it might be!

Date:

Astronomy

Nov. 05, 2012 Rise Set
Actual Time 7:08 AM EST 5:25 PM EST
Civil Twilight 6:39 AM EST 5:53 PM EST
Nautical Twilight 6:07 AM EST 6:26 PM EST
Astronomical Twilight 5:35 AM EST 6:58 PM EST
Moon 11:01 PM EST (11/5) 12:26 PM EST (11/5)
Length of Visible Light 11h 14m
Length of Day
10h 17m
Waning Gibbous, 63% of the Moon is Illuminated
Nov 5
Waning Gibbous
Nov 6
Last Quarter
Nov 13
New
Nov 20
First Quarter
Nov 28
Full

Hourly Weather History & Observations

Time (EST) Temp. Windchill Dew Point Humidity Pressure Visibility Wind Dir Wind Speed Gust Speed Precip Events Conditions
12:14 AM 30.7 °F - 28.4 °F 91% 30.15 in 7.0 mi Calm Calm - N/A   Scattered Clouds
12:34 AM 29.3 °F - 27.5 °F 93% 30.15 in 5.0 mi Calm Calm - N/A   Scattered Clouds
12:54 AM 30.0 °F - 27.5 °F 90% 30.15 in 10.0 mi Calm Calm - N/A   Clear
1:14 AM 28.6 °F - 25.9 °F 90% 30.15 in 7.0 mi Calm Calm - N/A   Clear
1:34 AM 28.2 °F - 26.4 °F 93% 30.14 in 5.0 mi Calm Calm - N/A   Clear
1:54 AM 28.0 °F - 26.8 °F 95% 30.15 in 5.0 mi Calm Calm - N/A   Clear
2:14 AM 26.6 °F - 25.2 °F 94% 30.15 in 4.0 mi Calm Calm - N/A   Clear
2:34 AM 27.3 °F - 26.1 °F 95% 30.15 in 4.0 mi Calm Calm - N/A   Clear
2:54 AM 26.4 °F - 24.8 °F 94% 30.15 in 7.0 mi Calm Calm - N/A   Clear
3:14 AM 26.2 °F - 24.6 °F 94% 30.15 in 7.0 mi Calm Calm - N/A   Clear
3:34 AM 26.4 °F - 25.0 °F 94% 30.15 in 7.0 mi Calm Calm - N/A   Clear
3:54 AM 25.5 °F - 23.7 °F 93% 30.15 in 7.0 mi Calm Calm - N/A   Clear
4:14 AM 25.5 °F - 23.7 °F 93% 30.15 in 7.0 mi Calm Calm - N/A   Clear
4:34 AM 26.2 °F - 24.3 °F 92% 30.15 in 7.0 mi Calm Calm - N/A   Clear
5:14 AM 25.5 °F - 23.7 °F 93% 30.16 in 7.0 mi Calm Calm - N/A   Clear
5:34 AM 24.6 °F - 23.0 °F 94% 30.17 in 7.0 mi Calm Calm - N/A   Clear
5:54 AM 25.9 °F 21.7 °F 23.9 °F 92% 30.17 in 7.0 mi North 3.5 mph - N/A   Clear
6:14 AM 24.8 °F - 22.3 °F 90% 30.17 in 7.0 mi Calm Calm - N/A   Clear
6:34 AM 25.2 °F - 22.6 °F 90% 30.16 in 7.0 mi Calm Calm - N/A   Clear
6:54 AM 24.8 °F - 22.3 °F 90% 30.17 in 7.0 mi Calm Calm - N/A   Clear
7:14 AM 25.2 °F - 22.6 °F 90% 30.17 in 7.0 mi Calm Calm - N/A   Clear
7:34 AM 25.7 °F - 23.2 °F 90% 30.17 in 7.0 mi Calm Calm - N/A   Clear
7:54 AM 25.9 °F - 23.7 °F 92% 30.18 in 5.0 mi Calm Calm - N/A   Clear
8:14 AM 28.6 °F - 25.9 °F 90% 30.18 in 7.0 mi Calm Calm - N/A   Clear
8:34 AM 30.2 °F - 26.6 °F 86% 30.19 in 10.0 mi Calm Calm - N/A   Clear
8:54 AM 31.6 °F - 27.3 °F 84% 30.19 in 10.0 mi Calm Calm - N/A   Clear
9:14 AM 33.1 °F - 28.4 °F 83% 30.19 in 10.0 mi Calm Calm - N/A   Clear
9:34 AM 34.9 °F - 28.0 °F 76% 30.18 in 10.0 mi Calm Calm - N/A   Clear
9:54 AM 36.5 °F 32.7 °F 27.7 °F 70% 30.18 in 10.0 mi NE 4.6 mph - N/A   Clear
10:14 AM 37.0 °F 32.4 °F 27.1 °F 67% 30.18 in 10.0 mi NE 5.8 mph - N/A   Clear
10:34 AM 38.3 °F 33.2 °F 26.4 °F 62% 30.18 in 10.0 mi ENE 6.9 mph - N/A   Clear
10:54 AM 39.0 °F 35.7 °F 26.8 °F 62% 30.18 in 10.0 mi ENE 4.6 mph - N/A   Scattered Clouds
11:14 AM 39.9 °F 35.8 °F 27.5 °F 61% 30.18 in 10.0 mi ENE 5.8 mph - N/A   Scattered Clouds
11:34 AM 39.4 °F 36.1 °F 26.6 °F 60% 30.18 in 10.0 mi NE 4.6 mph - N/A   Mostly Cloudy
11:54 AM 40.1 °F 35.3 °F 26.2 °F 58% 30.17 in 10.0 mi East 6.9 mph - N/A   Overcast
12:14 PM 40.3 °F 38.2 °F 26.2 °F 57% 30.17 in 10.0 mi East 3.5 mph - N/A   Mostly Cloudy
12:34 PM 41.7 °F - 26.4 °F 55% 30.16 in 10.0 mi Calm Calm - N/A   Scattered Clouds
12:54 PM 42.6 °F 37.8 °F 27.7 °F 56% 30.15 in 10.0 mi ENE 8.1 mph - N/A   Mostly Cloudy
1:14 PM 41.9 °F - 27.0 °F 55% 30.15 in 10.0 mi Calm Calm - N/A   Scattered Clouds
1:34 PM 43.0 °F 38.8 °F 26.2 °F 52% 30.14 in 10.0 mi NE 6.9 mph - N/A   Clear
1:54 PM 43.3 °F - 24.8 °F 48% 30.13 in 10.0 mi Calm Calm - N/A   Clear
2:14 PM 44.1 °F 41.5 °F 25.9 °F 49% 30.12 in 10.0 mi East 4.6 mph - N/A   Clear
2:34 PM 44.6 °F 40.7 °F 25.5 °F 47% 30.12 in 10.0 mi East 6.9 mph - N/A   Clear
2:54 PM 44.6 °F 43.1 °F 26.4 °F 49% 30.12 in 10.0 mi ESE 3.5 mph - N/A   Clear
3:14 PM 44.6 °F 43.1 °F 25.3 °F 47% 30.12 in 10.0 mi East 3.5 mph - N/A   Clear
3:34 PM 44.2 °F - 24.8 °F 46% 30.12 in 10.0 mi Calm Calm - N/A   Clear
3:54 PM 44.8 °F 42.4 °F 25.7 °F 47% 30.12 in 10.0 mi East 4.6 mph - N/A   Scattered Clouds
4:13 PM 44.6 °F 42.2 °F 25.7 °F 48% 30.12 in 10.0 mi ENE 4.6 mph - N/A   Scattered Clouds
4:34 PM 43.9 °F 40.5 °F 26.8 °F 51% 30.11 in 10.0 mi East 5.8 mph - N/A   Clear
4:54 PM 42.8 °F 40.1 °F 25.9 °F 51% 30.11 in 10.0 mi NE 4.6 mph - N/A   Clear
5:14 PM 41.0 °F 35.8 °F 27.5 °F 59% 30.11 in 10.0 mi NE 8.1 mph - N/A   Clear
5:34 PM 38.8 °F 33.2 °F 27.7 °F 64% 30.12 in 10.0 mi ENE 8.1 mph - N/A   Clear
5:54 PM 37.8 °F 32.5 °F 27.5 °F 67% 30.12 in 10.0 mi ENE 6.9 mph - N/A   Clear
6:14 PM 36.5 °F 31.0 °F 27.3 °F 69% 30.13 in 10.0 mi ENE 6.9 mph - N/A   Clear
6:34 PM 35.8 °F 30.1 °F 27.5 °F 72% 30.13 in 10.0 mi ENE 6.9 mph - N/A   Clear
6:54 PM 34.5 °F 29.4 °F 27.1 °F 74% 30.13 in 10.0 mi ENE 5.8 mph - N/A   Clear
7:14 PM 33.6 °F 29.4 °F 26.8 °F 76% 30.13 in 10.0 mi ENE 4.6 mph - N/A   Clear
7:34 PM 33.4 °F 29.1 °F 26.6 °F 76% 30.13 in 10.0 mi ENE 4.6 mph - N/A   Clear
7:54 PM 32.7 °F 29.6 °F 26.1 °F 76% 30.14 in 10.0 mi ENE 3.5 mph - N/A   Clear
8:14 PM 32.5 °F 28.1 °F 27.0 °F 80% 30.14 in 10.0 mi NE 4.6 mph - N/A   Clear
8:34 PM 31.1 °F 26.4 °F 25.9 °F 81% 30.15 in 10.0 mi NE 4.6 mph - N/A   Clear
8:54 PM 30.6 °F 27.1 °F 25.5 °F 82% 30.15 in 10.0 mi NE 3.5 mph - N/A   Clear
9:14 PM 30.4 °F 26.9 °F 25.5 °F 82% 30.15 in 3.0 mi NE 3.5 mph - N/A   Clear
9:34 PM 30.2 °F 25.4 °F 25.5 °F 83% 30.16 in 1.2 mi NE 4.6 mph - N/A   Unknown
9:54 PM 30.0 °F - 25.7 °F 84% 30.15 in 1.2 mi Calm Calm - N/A   Unknown
10:14 PM 29.3 °F - 26.2 °F 88% 30.15 in 10.0 mi Calm Calm - N/A   Clear
10:34 PM 29.7 °F - 25.0 °F 83% 30.15 in 10.0 mi Calm Calm - N/A   Clear
10:54 PM 28.8 °F - 25.3 °F 87% 30.15 in 10.0 mi Calm Calm - N/A   Clear
11:14 PM 29.7 °F - 25.7 °F 85% 30.14 in 10.0 mi Calm Calm - N/A   Clear
11:34 PM 28.4 °F - 25.5 °F 89% 30.13 in 10.0 mi Calm Calm - N/A   Clear
11:54 PM 27.7 °F - 23.5 °F 84% 30.13 in 10.0 mi Calm Calm - N/A   Clear